Location: Unspecified
(0.0000°N, 0.0000°E)
Time: 07:48:05
(UTC+00:00)

Tiros 1 despin weight - Pass Details

Date: 08 October 2023
Orbit: 583 x 627 km, 48.2° (Epoch: 05 December)

Event Time Altitude Azimuth Distance (km) Brightness Sun altitude
Rises 14:39:30 0° 260° (W) 2,907 ? 46.7°
Reaches altitude 10° 14:44:11 10° 303° (WNW) 1,995 ? 45.5°
Maximum altitude 14:44:47 10° 311° (NW) 1,979 ? 45.4°
Drops below altitude 10° 14:45:23 10° 318° (NW) 1,993 ? 45.2°
Sets 14:50:04 0° 2° (N) 2,888 ? 44.1°
